Location: Oroua River
(40.4333°S, 175.4333°E)
Time: 17:44:32
(UTC+00:00)

MSX - Pass Details

Date: 05 October 2023
Orbit: 895 x 905 km, 98.9° (Epoch: 28 November)

Event Time Altitude Azimuth Distance (km) Brightness Sun altitude
Exits shadow 13:10:40 20° 182° (S) 1,980 6.0 -42.5°
Drops below altitude 10° 13:12:24 10° 187° (S) 2,620 6.8 -42.4°
Sets 13:14:51 0° 190° (S) 3,568 7.6 -42.2°
